[[{"header":{"parameterUnit":"m.s-1","parameterCategory":1,"la1":30.2991,"la2":30.254,"lo1":-89.0895,"lo2":-89.0444,"dx":0.0017,"dy":0.0017,"nx":28,"ny":28,"refTime":"2023-01-13T09:00:00:Z","depth":0,"parameterNumber":2,"parameterNumberName":"U-component_of_WINDS"},"data":[0,0,0,0,0,0,0,0,0,0,0,0,0,0,0,0,0,0,0,0,0,0,0,0,0,0,0,0,0,0,0,0,0,0,0,0,0,0,0,0,0,0,0,0,0,0,0,0,0,0,0,0,0,0,0,0,0,0,0.2997,0.2998,0,0.3012,0.3012,0.3012,0.3033,0.3034,0.3034,0.3034,0.3048,0.3048,0.3048,0,0,0,0,0,0,0,0,0,0,0,0,0,0.2989,0.2989,0.2997,0.2998,0.2998,0.3012,0.3012,0.3012,0.3033,0.3034,0.3034,0.3034,0.3048,0.3048,0.3048,0,0,0,0,0,0,0,0,0,0,0,0,0,0.2997,0.2989,0.2997,0.301,0.3011,0.3012,0.3012,0.3012,0.3033,0.3034,0.3034,0.3035,0.3048,0.3048,0.3048,0.3037,0,0,0.3048,0.3048,0,0,0,0,0,0,0,0,0.2996,0.2997,0.3008,0.3009,0.3011,0.3021,0.3014,0.302,0.3033,0.3025,0.3034,0.3035,0.3039,0.304,0.3041,0.3038,0.3038,0.3048,0.3048,0.3048,0.3048,0,0,0,0,0,0,0,0.2996,0.2996,0.3003,0.3008,0.301,0.3015,0.3017,0.3015,0.3028,0.3025,0.3027,0.3028,0.304,0.3041,0.3041,0.3039,0.3048,0.3048,0.3048,0.3048,0.3028,0.3028,0,0,0,0,0,0,0.2993,0.2996,0.3003,0.3003,0.3005,0.3015,0.3017,0.3017,0.3028,0.3031,0.3028,0.3029,0.3041,0.3041,0.3042,0.303,0.3048,0.3048,0.3048,0.3029,0.3028,0.3027,0,0,0,0,0,0,0.2993,0.2994,0.3002,0.3,0.3002,0.3014,0.3015,0.3017,0.3019,0.303,0.3033,0.3027,0.3041,0.3042,0.3039,0.3031,0.3048,0.3048,0.3029,0.3029,0.3028,0.3006,0,0,0,0,0,0,0.2993,0.2993,0.2989,0.3,0.3002,0.2998,0.3014,0.3017,0.3019,0.3021,0.303,0.3032,0.3042,0.3038,0.3039,0.3031,0.3048,0.303,0.3029,0.3028,0.3007,0.3004,0.3002,0,0,0,0,0,0.2992,0.2982,0.2989,0.2989,0.2997,0.2997,0.2998,0.301,0.3018,0.3014,0.3022,0.3032,0.3032,0.3038,0.3038,0.3031,0.3031,0.3029,0.3028,0.3008,0.3005,0.3002,0,0,0,0,0,0,0.2969,0.2984,0.2991,0.2984,0.299,0.3001,0.2996,0.3005,0.3008,0.301,0.3024,0.3026,0.3021,0.3026,0.3032,0.3021,0.3033,0.3032,0.3018,0.3014,0.3012,0.301,0.3049,0,0,0,0,0,0.2964,0.2963,0.2976,0.2968,0.2971,0.2983,0.2984,0.2992,0.2998,0.3,0.3008,0.3013,0.3015,0.3015,0.3017,0.3009,0.3011,0.3004,0.3001,0.2999,0.2997,0.2994,0.299,0.3023,0.3023,0.3023,0,0,0.2951,0.2959,0.2958,0.2964,0.2969,0.2968,0.2985,0.2983,0.2983,0.3,0.2997,0.3003,0.301,0.3004,0.3002,0.3008,0.2989,0.2997,0.2995,0.2995,0.2992,0.2989,0.2986,0.3022,0.3023,0.3023,0,0,0.2929,0.2935,0.2929,0.2934,0.2942,0.2951,0.2949,0.296,0.2965,0.2962,0.2975,0.2976,0.2977,0.2982,0.2985,0.2965,0.2975,0.2966,0.2951,0.2947,0.2945,0.2943,0.2935,0.2933,0.2964,0.2964,0.2964,0,0.2912,0.2912,0.2925,0.2923,0.2925,0.2942,0.2937,0.2941,0.2949,0.295,0.2958,0.2961,0.2967,0.2962,0.2958,0.296,0.2959,0.2964,0.2944,0.2942,0.294,0.2933,0.2931,0.2963,0.2963,0.2963,0.2964,0,0.2891,0.2891,0.2885,0.2893,0.2895,0.2891,0.2905,0.2905,0.2914,0.2922,0.292,0.2928,0.2932,0.2932,0.294,0.2929,0.2932,0.2942,0.2953,0.2936,0.293,0.2927,0.2961,0.2962,0.2962,0.2963,0,0,0.2852,0.2869,0.2866,0.2871,0.2881,0.2881,0.2879,0.2883,0.2883,0.2889,0.2887,0.2889,0.2898,0.2901,0.2911,0.2908,0.2892,0.2917,0.2918,0.2912,0.288,0.2872,0.2869,0.2899,0.2899,0.2898,0.2879,0,0.2831,0.2827,0.284,0.2833,0.2833,0.285,0.2848,0.2855,0.2862,0.2864,0.2873,0.2874,0.2886,0.2888,0.2886,0.2894,0.2886,0.2896,0.2897,0.2897,0.2894,0.2866,0.2857,0.2839,0.2877,0.2877,0.2877,0,0.2805,0.281,0.2803,0.2815,0.2815,0.2813,0.2819,0.282,0.2828,0.2834,0.2838,0.2849,0.2848,0.2861,0.2859,0.2866,0.2868,0.2872,0.2872,0.2871,0.2885,0.2864,0.2833,0.283,0.2873,0.2873,0.2874,0,0.2776,0.2781,0.2778,0.2781,0.2795,0.2793,0.2799,0.2808,0.281,0.2815,0.2817,0.2822,0.2824,0.2828,0.284,0.2848,0.2838,0.2851,0.2842,0.2842,0.2838,0.2838,0.2806,0.2841,0.2841,0.2841,0.2841,0,0.2751,0.2745,0.2765,0.2763,0.2758,0.2774,0.2769,0.2776,0.2784,0.2784,0.28,0.2799,0.2816,0.2818,0.2828,0.2825,0.2826,0.2831,0.2834,0.2829,0.2828,0.2829,0.283,0.284,0.284,0.284,0.2841,0,0.2717,0.273,0.2728,0.2742,0.2746,0.2741,0.2754,0.2752,0.2762,0.2762,0.2762,0.2777,0.278,0.2793,0.2799,0.2806,0.28,0.2805,0.2797,0.2798,0.2789,0.2789,0.2756,0.2752,0.279,0.2789,0.2789,0,0.2699,0.2696,0.271,0.2711,0.2716,0.2718,0.272,0.2736,0.2738,0.2748,0.2746,0.275,0.2754,0.2758,0.2769,0.2774,0.278,0.2768,0.278,0.2776,0.2779,0.2778,0.2778,0.2764,0.2764,0.2764,0.2763,0,0.2665,0.2672,0.2676,0.2681,0.2684,0.2689,0.2696,0.2696,0.2713,0.2715,0.2718,0.2722,0.2728,0.2732,0.2739,0.2746,0.2757,0.276,0.2758,0.2752,0.2747,0.2749,0.2788,0.276,0.276,0.276,0.2761,0.2761,0.2638,0.2637,0.2646,0.265,0.2656,0.2662,0.2662,0.2672,0.2675,0.2682,0.2691,0.2693,0.2703,0.2714,0.2719,0.2721,0.2728,0.2725,0.2724,0.2723,0.2721,0.2748,0.2723,0.2723,0.2723,0.2723,0.2723,0,0.2605,0.2613,0.2616,0.2624,0.2627,0.2639,0.2647,0.2648,0.265,0.2658,0.2662,0.2666,0.2671,0.2683,0.2689,0.2688,0.2694,0.2689,0.2689,0.269,0.2715,0.2716,0.2685,0.2685,0.2685,0.2685,0.2685,0.2685,0.2588,0.2585,0.2594,0.2595,0.2603,0.2605,0.2608,0.2614,0.2621,0.2625,0.2629,0.2637,0.2647,0.2654,0.2659,0.2663,0.2664,0.2657,0.2662,0.2685,0.2688,0.2692,0.2693,0.2657,0.2657,0.2637,0.2637,0.2637]},{"header":{"parameterUnit":"m.s-1","parameterCategory":1,"la1":30.2991,"la2":30.254,"lo1":-89.0895,"lo2":-89.0444,"dx":0.0017,"dy":0.0017,"nx":28,"ny":28,"refTime":"2023-01-13T09:00:00:Z","depth":0,"parameterNumber":3,"parameterNumberName":"V-component_of_WINDS"},"data":[0,0,0,0,0,0,0,0,0,0,0,0,0,0,0,0,0,0,0,0,0,0,0,0,0,0,0,0,0,0,0,0,0,0,0,0,0,0,0,0,0,0,0,0,0,0,0,0,0,0,0,0,0,0,0,0,0,0,-5.2023,-5.2025,0,-5.215,-5.2151,-5.2153,-5.2126,-5.2123,-5.2121,-5.2119,-5.2244,-5.225,-5.2255,0,0,0,0,0,0,0,0,0,0,0,0,0,-5.1755,-5.176,-5.2023,-5.2025,-5.2026,-5.215,-5.2151,-5.2153,-5.2126,-5.2123,-5.212,-5.2118,-5.2243,-5.2249,-5.2256,0,0,0,0,0,0,0,0,0,0,0,0,0,-5.1875,-5.1761,-5.2023,-5.2028,-5.2029,-5.2149,-5.2151,-5.2153,-5.2127,-5.2123,-5.212,-5.2116,-5.224,-5.2248,-5.2257,-5.2378,0,0,-5.2282,-5.2286,0,0,0,0,0,0,0,0,-5.1868,-5.1885,-5.2025,-5.2028,-5.203,-5.2118,-5.2103,-5.2229,-5.2128,-5.209,-5.2119,-5.2115,-5.2205,-5.2216,-5.2247,-5.2384,-5.2389,-5.2283,-5.2288,-5.2291,-5.2294,0,0,0,0,0,0,0,-5.186,-5.1879,-5.2073,-5.2027,-5.203,-5.2023,-5.2036,-5.2126,-5.2165,-5.2093,-5.2091,-5.2107,-5.2205,-5.2239,-5.225,-5.2391,-5.2282,-5.229,-5.2295,-5.2298,-5.2635,-5.2638,0,0,0,0,0,0,-5.185,-5.1873,-5.2069,-5.2077,-5.1939,-5.203,-5.2045,-5.2093,-5.2164,-5.2172,-5.2109,-5.2105,-5.2227,-5.224,-5.2254,-5.2402,-5.2291,-5.2299,-5.2304,-5.2631,-5.2635,-5.264,0,0,0,0,0,0,-5.1845,-5.1868,-5.2064,-5.1974,-5.1999,-5.2039,-5.2093,-5.2098,-5.2132,-5.2177,-5.2183,-5.2137,-5.2225,-5.2243,-5.2348,-5.2406,-5.2303,-5.231,-5.2626,-5.2632,-5.2638,-5.2698,0,0,0,0,0,0,-5.1837,-5.1866,-5.1913,-5.1976,-5.2004,-5.2157,-5.2097,-5.2103,-5.2147,-5.2142,-5.2205,-5.2212,-5.2223,-5.2336,-5.2356,-5.2416,-5.2317,-5.2621,-5.2629,-5.2636,-5.2691,-5.2706,-5.2718,0,0,0,0,0,-5.1827,-5.1924,-5.1916,-5.194,-5.2064,-5.216,-5.2176,-5.2188,-5.2151,-5.2199,-5.2228,-5.221,-5.2396,-5.2347,-5.237,-5.2432,-5.2617,-5.2626,-5.2635,-5.2685,-5.2703,-5.2718,0,0,0,0,0,0,-5.1866,-5.1932,-5.1924,-5.2044,-5.2097,-5.2155,-5.2216,-5.2206,-5.227,-5.2262,-5.2274,-5.2288,-5.2396,-5.2424,-5.2368,-5.2554,-5.2501,-5.2515,-5.2532,-5.2549,-5.2562,-5.2553,-5.2324,0,0,0,0,0,-5.1889,-5.1963,-5.2016,-5.2117,-5.2144,-5.2175,-5.2218,-5.2223,-5.2277,-5.2299,-5.2336,-5.2389,-5.2459,-5.2505,-5.2572,-5.2695,-5.2709,-5.2749,-5.2763,-5.2773,-5.2786,-5.2853,-5.2873,-5.2669,-5.2669,-5.2669,0,0,-5.1936,-5.1981,-5.2027,-5.2126,-5.2167,-5.2243,-5.2194,-5.2276,-5.2332,-5.2311,-5.2414,-5.2443,-5.2502,-5.2617,-5.2669,-5.2644,-5.2845,-5.2785,-5.2793,-5.2799,-5.2865,-5.2884,-5.2901,-5.2675,-5.2674,-5.2673,0,0,-5.2061,-5.2103,-5.2192,-5.2235,-5.2299,-5.232,-5.2341,-5.2402,-5.2421,-5.2524,-5.2511,-5.2576,-5.2697,-5.2741,-5.2779,-5.2921,-5.2907,-5.2943,-5.3012,-5.3078,-5.3094,-5.3109,-5.3161,-5.3179,-5.2954,-5.2954,-5.2955,0,-5.2112,-5.2226,-5.2239,-5.2323,-5.2367,-5.2353,-5.2443,-5.2484,-5.2566,-5.2596,-5.2567,-5.272,-5.2758,-5.2884,-5.2919,-5.295,-5.2974,-5.2936,-5.3091,-5.3106,-5.3119,-5.3169,-5.3188,-5.2958,-5.2958,-5.2958,-5.2957,0,-5.2285,-5.2365,-5.2429,-5.2511,-5.2562,-5.2649,-5.2674,-5.2723,-5.2724,-5.2748,-5.2853,-5.2899,-5.2977,-5.3006,-5.3007,-5.3132,-5.3115,-5.3088,-5.3036,-5.3143,-5.3189,-5.3208,-5.2964,-5.2963,-5.2962,-5.2961,0,0,-5.2438,-5.2527,-5.2551,-5.2589,-5.2659,-5.272,-5.2805,-5.2883,-5.2926,-5.2982,-5.3055,-5.3158,-5.3135,-5.3178,-5.3183,-5.3241,-5.3352,-5.3207,-5.3209,-5.3234,-5.3494,-5.3515,-5.3536,-5.3343,-5.3347,-5.335,-5.349,0,-5.2571,-5.2724,-5.2738,-5.2875,-5.2949,-5.2938,-5.3012,-5.3063,-5.3087,-5.3152,-5.3178,-5.3252,-5.3215,-5.3241,-5.3298,-5.3327,-5.3405,-5.3317,-5.341,-5.3413,-5.3397,-5.3561,-5.3582,-5.3712,-5.3508,-5.3511,-5.3513,0,-5.2746,-5.2811,-5.2956,-5.3017,-5.3049,-5.3116,-5.3188,-5.3251,-5.3308,-5.3321,-5.337,-5.3368,-5.3455,-5.3399,-5.352,-5.346,-5.3498,-5.3519,-5.3524,-5.3534,-5.3471,-5.3576,-5.3754,-5.3774,-5.3542,-5.354,-5.3538,0,-5.2845,-5.2968,-5.3071,-5.3103,-5.3177,-5.3224,-5.3257,-5.3311,-5.3356,-5.3419,-5.3449,-5.352,-5.3559,-5.3614,-5.3631,-5.3588,-5.3752,-5.3696,-5.3765,-5.3765,-5.3801,-5.3798,-5.3989,-5.3824,-5.3824,-5.3823,-5.3823,0,-5.2992,-5.3082,-5.3117,-5.318,-5.328,-5.3295,-5.3393,-5.3422,-5.3471,-5.3539,-5.3532,-5.3596,-5.3614,-5.3682,-5.3695,-5.3794,-5.3811,-5.3824,-5.3827,-5.3826,-5.3824,-5.3852,-5.3844,-5.3828,-5.3827,-5.3826,-5.3825,0,-5.312,-5.3147,-5.3259,-5.332,-5.3337,-5.3408,-5.346,-5.3521,-5.3544,-5.363,-5.3651,-5.3687,-5.3766,-5.3789,-5.3882,-5.3892,-5.4008,-5.4002,-5.3989,-5.399,-5.4058,-5.4052,-5.4273,-5.4304,-5.4118,-5.412,-5.4121,0,-5.3213,-5.3282,-5.3351,-5.3397,-5.3432,-5.3506,-5.3554,-5.3571,-5.362,-5.3691,-5.3743,-5.3821,-5.3885,-5.4011,-5.4045,-5.4117,-5.4113,-5.4186,-5.4124,-5.4121,-5.4116,-5.4112,-5.4119,-5.4198,-5.42,-5.4201,-5.4203,0,-5.3375,-5.3385,-5.3455,-5.3529,-5.3586,-5.3645,-5.3702,-5.374,-5.3765,-5.382,-5.3902,-5.3951,-5.4049,-5.4126,-5.42,-5.4231,-5.4222,-5.4222,-5.4242,-5.4242,-5.4233,-5.424,-5.4023,-5.4217,-5.4216,-5.4214,-5.4214,-5.4213,-5.3489,-5.355,-5.3609,-5.3687,-5.3731,-5.3785,-5.3846,-5.3877,-5.3946,-5.4028,-5.4033,-5.4122,-5.4177,-5.4275,-5.4311,-5.4379,-5.4358,-5.4386,-5.4394,-5.4401,-5.4408,-5.4221,-5.4392,-5.4392,-5.4392,-5.4391,-5.4391,0,-5.3652,-5.369,-5.3761,-5.3842,-5.3903,-5.3889,-5.3951,-5.4003,-5.4082,-5.4135,-5.4199,-5.4293,-5.4368,-5.4408,-5.4484,-5.4531,-5.4528,-5.455,-5.4547,-5.4555,-5.4422,-5.4398,-5.4551,-5.4551,-5.4551,-5.4551,-5.4551,-5.4551,-5.3744,-5.3848,-5.3865,-5.3991,-5.4027,-5.4116,-5.4152,-5.4201,-5.4244,-5.435,-5.4414,-5.444,-5.4488,-5.4567,-5.4636,-5.4645,-5.4674,-5.4699,-5.4706,-5.4581,-5.4564,-5.4549,-5.4526,-5.4704,-5.4704,-5.4834,-5.4835,-5.4836]}]]